Zurück zum Katalog

STARLINK-31493

AktivKommunikationVLEO
NORAD 59329·PAYLOAD·🇺🇸 United States

Gestartet Mar 25, 2024 von Cape Canaveral Space Force Station

Loading…

Nächste Überflüge (nächste 24 Stunden)

TLE

AktuellSource: CelesTrak SupGP

Epoche: Sep 14, 2026, 20:59 UTC

1 59329C 24057K   26257.87479167  .00018588  00000+0  67324-3 0  2578
2 59329  43.0006 198.5393 0001117 260.2142 106.4638 15.27570310    18

Verfolge STARLINK-31493 in Echtzeit mit AllMySat

Download on the App Store